User: anonymous   Login
Location: Makakahi
(40.6833°S, 175.6000°E)
Time: 03:21:27
(UTC+00:00)
Language:

IRIDIUM 103 - Orbit

View from above orbital plane
View from above orbital plane
View from above satellite
View from above satellite

Ground track
Ground track

The orbit data is extracted from the following two-line orbital elements,

1 41918U 17003B   24258.81710352  .00001030  00000-0  36054-3 0  9997
2 41918  86.4030 356.0364 0001649  87.6544 272.4841 14.34219911401454
Epoch (UTC): 14 September 2024 19:36:37
Eccentricity: 0.0001649
inclination: 86.4030°
perigee height: 776 km
apogee height: 779 km
right ascension of ascending node: 356.0364°
argument of perigee: 87.6544°
revolutions per day: 14.34219911
mean anomaly at epoch: 272.4841°
orbit number at epoch: 40145

The dashed part of the orbit path shows where the satellite is in the earth's shadow,  

DLR